• Join FlightAware (Why Join?)
  • Login
  • US Flag 
10:05PM EST


 

Airport Tracker/Info


-or-


 

Live Flight TrackerFlight Track Log ✈ AWE4096 ✈ 15-Jun-2014 ✈ KCLT - KORF

Flight Track Log - Related Links

Times and Time Zones

All times are in EDT time to prevent confusion due to time zone crossing. See the AWE4096 flight status page for this flight to view local times or setup timezone preferences in your user account.

Time Position Orientation Groundspeed Altitude Reporting Facility
EDT Latitude Longitude Course Direction KTS MPH feet Rate Location/Type
12:57PM 35.1928 -80.9356 72° East 170 196 1,400  Level Atlanta Center
12:58PM 35.1425 -80.9222 168° South 201 231 3,300 1,745 Climbing Atlanta Center
12:59PM 35.0994 -80.8706 136° Southeast 276 318 4,600 2,092 Climbing Atlanta Center
01:00PM 35.1256 -80.6163 29° Northeast  Level FlightAware Approximate
01:01PM 35.2264 -80.5478 30° Northeast  Level FlightAware Approximate
01:01PM 35.1167 -80.7353 81° East 286 329 8,600  Level Atlanta Center
01:02PM 35.3167 -80.4701 90° East  Level FlightAware Approximate
01:02PM 35.1625 -80.6522 56° Northeast 287 330 10,500  Level Atlanta Center
01:03PM 35.3629 -80.3549 72° East  Level FlightAware Approximate
01:04PM 35.2911 -80.4117 57° Northeast 344 396 13,300  Level Washington Center
01:05PM 35.3475 -80.3056 57° Northeast 357 411 14,800 1,311 Climbing Washington Center
01:06PM 35.4039 -80.1992 57° Northeast 362 417 15,900 1,169 Climbing Washington Center
01:07PM 35.4478 -80.0844 65° Northeast 362 417 17,100 992 Climbing Washington Center
01:08PM 35.4797 -79.9589 73° East 374 430 17,900 836 Climbing Washington Center
01:09PM 35.5067 -79.8428 74° East 380 437 18,800 836 Climbing Washington Center
01:10PM 35.5406 -79.7144 72° East 390 449 19,600 857 Climbing Washington Center
01:11PM 35.5722 -79.5808 74° East 395 455 20,500 706 Climbing Washington Center
01:12PM 35.6083 -79.4294 74° East 410 472 21,000 248 Climbing Washington Center
01:13PM 35.6331 -79.3078 76° East 410 472 21,000  Level Washington Center
01:14PM 35.6647 -79.1636 75° East 421 484 21,000 -555 Level Washington Center
01:15PM 35.6981 -79.0142 75° East 436 502 19,900 -659 Descending Washington Center
01:17PM 35.7625 -78.7200 79° East 441 507 19,000 -300 Descending Washington Center
01:18PM 35.7956 -78.5703 75° East 441 507 19,000  Level Washington Center
01:19PM 35.8283 -78.4228 75° East 441 507 19,000  Level Washington Center
01:20PM 35.8589 -78.2778 75° East 441 507 19,000  Level Washington Center
01:21PM 35.8892 -78.1303 76° East 441 507 19,000  Level Washington Center
01:22PM 35.9217 -77.9800 75° East 446 513 19,000  Level Washington Center
01:23PM 35.9536 -77.8322 75° East 446 513 19,000  Level Washington Center
01:24PM 35.9897 -77.6867 73° East 446 513 19,000  Level Washington Center
01:25PM 36.0522 -77.5547 60° Northeast 441 507 19,000  Level Washington Center
01:26PM 36.1169 -77.4253 58° Northeast 436 502 19,000  Level Washington Center
01:27PM 36.1797 -77.2828 61° Northeast 436 502 19,000 -713 Level Washington Center
01:28PM 36.2247 -77.1858 60° Northeast 443 510 17,800 -1,552 Descending Washington Center
01:28PM 36.2333 -77.1653 63° Northeast 431 496 17,500 -1,595 Descending Washington Center
01:29PM 36.2997 -77.0222 60° Northeast 431 496 15,700 -1,765 Descending Washington Center
01:30PM 36.3233 -76.9764 57° Northeast 414 476 15,000 -1,700 Descending Washington Center
01:30PM 36.3575 -76.9022 60° Northeast 425 489 14,000 -1,742 Descending Washington Center
01:31PM 36.4275 -76.8053 48° Northeast 391 450 12,300 -1,587 Descending Washington Center
01:32PM 36.5036 -76.7006 48° Northeast 392 451 10,800 -1,317 Descending Washington Center
01:33PM 36.5628 -76.6161 49° Northeast 357 411 9,600 -1,881 Descending Washington Center
01:34PM 36.6133 -76.5417 50° Northeast 311 358 7,100 -2,535 Descending Washington Center
01:34PM 36.6197 -76.5314 52° Northeast 278 320 6,600 -2,164 Descending Washington Center
01:35PM 36.6619 -76.4697 50° Northeast 280 322 4,900 -1,967 Descending Washington Center
01:35PM 36.6683 -76.4594 52° Northeast 266 306 4,600 -1,700 Descending Washington Center
01:36PM 36.7083 -76.4003 50° Northeast 261 300 3,200 -1,692 Descending Washington Center
01:37PM 36.7294 -76.3719 47° Northeast 255 293 2,400 -1,082 Descending Washington Center
01:37PM 36.7461 -76.3461 51° Northeast 247 284 2,100 -295 Descending Washington Center
01:38PM 36.7733 -76.3231 34° Northeast 193 222 2,100 -132 Level Washington Center
01:39PM 36.8156 -76.2794 40° Northeast 180 207 1,900 -541 Descending Washington Center
01:40PM 36.8511 -76.2461 37° Northeast 153 176 1,000 -874 Descending Washington Center
01:40PM 36.8761 -76.2256 33° Northeast 147 169 400 -857 Descending Washington Center